Location: downtown San Diego
(32.7310°N, 117.1990°W)
Time: 15:48:07
(UTC-07:00)

SWIFT - Pass Details

Date: 14 June 2018
Orbit: 546 x 561 km, 20.6° (Epoch: 18 September)

Event Time Altitude Azimuth Distance (km) Brightness Sun altitude
Rises 21:19:49 0° 242° (WSW) 2,701 6.1 -14.9°
Reaches altitude 10° 21:22:55 10° 218° (SW) 1,805 4.9 -15.4°
Enters shadow 21:25:10 15° 186° (S) 1,510 4.2 -15.8°
